カタログに戻る

SL-16 DEB

運用中LEO
NORAD 22608·DEBRIS·🇷🇺 Russia

打ち上げ Mar 26, 1993 から Baikonur Cosmodrome

Loading…

次のパス (今後24時間)

TLE

最新Source: Space-Track

元期: Sep 14, 2026, 06:19 UTC

1 22608U 93016S   26257.26377840 -.00000014  00000-0  24680-4 0  9996
2 22608  71.0070 347.3954 0128618  64.0244 328.3817 13.84738428691271

AllMySatでSL-16 DEBをリアルタイム追跡

Download on the App Store